Dewpoint
77 74 74 75 76 74 75 75 75 71 74 69 67 68 68 70 72 72 70 70 70 72 73 75 77 76 73 73 75 75 73 73 73 71 72 71 68 67 64 64 65 65
74 74 73 77 76 76 76 74 74 74 74 72 71 69 70 71 71 73 73 71 72 72 73 73 75 75 74 72 73 73 73 73 73 70 71 71 70 67 65 65 65 65
75 74 73 75 75 75 73 74 74 73 74 74 70 72 70 71 71 73 73 73 71 68 70 72 73 74 73 74 75 74 71 74 73 70 71 71 70 69 68 65 64 64
75 73 73 75 75 75 75 75 74 73 74 73 73 72 72 72 72 71 73 74 73 72 71 70 71 71 71 72 73 73 72 73 72 73 72 71 71 69 68 67 65 65
73 73 72 74 74 75 75 73 73 73 73 73 72 73 74 74 74 72 74 74 73 72 72 72 72 72 72 73 73 72 72 71 72 73 72 71 72 71 69 67 68 65
73 73 72 74 75 74 73 71 70 72 72 71 72 71 72 73 73 74 74 74 70 70 70 69 70 70 72 71 72 72 70 69 70 72 72 73 70 69 67 67 69 67
73 73 76 75 75 74 74 74 74 73 72 73 74 73 74 73 73 73 74 74 73 71 69 70 72 72 71 71 72 72 72 73 73 73 73 71 72 70 68 68 70 69
73 75 76 75 75 74 73 73 73 74 74 74 72 73 73 73 73 71 72 72 71 71 72 69 71 74 73 74 72 70 70 69 71 74 73 73 72 72 70 67 69 71
75 75 75 74 74 74 74 73 73 74 73 72 72 73 73 72 71 71 71 71 71 71 72 71 72 73 74 74 74 73 72 71 69 71 71 71 70 70 69 70 69 70
73 74 75 74 73 73 73 73 72 73 73 72 73 72 71 72 72 70 70 73 73 72 71 72 71 72 74 73 74 73 72 71 71 72 71 70 69 69 68 69 69 70
73 73 73 73 73 73 73 73 73 73 72 72 72 72 72 71 72 71 72 72 71 72 72 72 71 72 73 72 73 72 72 72 72 71 71 71 71 71 71 71 70 70
73 73 72 73 73 72 72 72 73 73 72 73 73 73 74 73 71 71 72 72 73 73 71 72 72 73 73 74 72 73 71 73 72 71 71 72 71 70 71 71 70 71
72 72 72 72 73 73 72 71 71 72 72 72 72 72 72 71 71 72 72 72 73 72 72 72 73 73 75 75 74 73 72 71 70 71 71 71 71 71 71 72 72 72
72 72 72 72 73 73 73 72 71 71 72 71 72 72 70 70 71 70 71 72 72 71 72 74 74 74 74 76 75 73 72 71 71 71 70 70 70 71 71 71 73 74
74 73 73 73 74 74 73 72 71 71 72 72 72 71 72 72 72 71 71 72 72 72 72 72 71 70 70 71 72 72 72 70 71 70 71 70 71 70 70 70 72 74
73 73 73 72 72 72 74 73 72 72 72 72 72 72 73 73 74 73 72 72 72 72 71 71 71 71 75 75 75 74 74 73 73 73 72 72 72 71 71 74 72 72
72 72 72 72 73 72 73 73 72 73 73 74 74 74 74 75 74 74 72 72 73 72 72 71 71 73 71 69 70 72 73 73 72 73 72 73 73 73 73 74 73 72
72 73 72 72 73 73 74 75 74 74 74 74 72 71 73 72 72 72 73 72 71 71 70 71 72 69 67 68 68 68 71 73 71 71 72 72 72 72 72 72 72 73
72 72 72 72 72 73 73 72 72 71 71 70 69 69 70 70 70 69 69 69 69 71 71 71 71 68 66 67 67 67 68 72 72 72 72 73 73 73 72 72 73 72
72 72 71 72 71 72 72 72 71 71 70 70 68 69 68 67 67 67 67 70 69 70 71 71 72 67 65 65 64 64 66 69 72 72 73 73 74 75 74 74 73 72
72 72 71 71 71 71 71 70 70 70 69 69 68 68 67 67 65 65 66 67 67 67 68 69 70 63 63 63 62 62 64 69 71 72 72 72 73 72 73 73 72 72
72 71 71 71 71 70 70 70 69 69 69 68 68 67 67 66 66 66 66 66 66 67 65 66 67 61 61 61 61 61 64 67 69 70 70 69 70 71 72 73 73 73
71 71 71 71 71 70 70 70 69 68 68 67 67 66 66 66 66 65 66 67 67 67 67 68 67 62 60 60 60 60 65 66 68 67 68 69 69 70 70 71 71 71
71 71 71 71 71 69 68 68 68 68 67 67 66 66 66 66 67 66 67 66 67 68 65 67 66 63 59 59 59 59 64 66 67 67 67 67 68 69 69 70 70 70
71 70 70 69 68 68 68 68 67 67 67 67 67 66 67 67 65 65 66 67 67 67 66 66 65 64 59 58 58 60 64 66 66 66 66 66 65 66 67 68 68 69
70 70 70 69 68 68 68 67 67 67 67 66 67 66 65 65 66 65 66 66 67 67 66 66 66 66 65 58 58 59 60 66 66 65 64 65 65 65 65 66 66 67